Location: Andershausen
(51.8462°N, 9.8595°E)
Time: 23:28:36
(UTC+00:00)

Resurs 01 Rocket - Pass Details

Date: 18 November 2025
Orbit: 627 x 636 km, 97.7° (Epoch: 04 December)

Event Time Altitude Azimuth Distance (km) Brightness Sun altitude
Exits shadow 17:30:08 26° 32° (NNE) 1,252 2.8 -18.8°
Drops below altitude 10° 17:32:42 10° 3° (N) 2,036 4.1 -19.2°
Sets 17:35:05 0° 353° (N) 2,949 5.0 -19.6°
